| time (UTC) | temp F | wind direction | speed knots | gust knots | rain 1hr in | rain 24hr in | rain mn in | humidity % | barometer mb |
| 20260509221104 | 89 | 309 | 1.7 | 2.6 | 0.00 | 0.00 | 0.00 | 30 | 1010.1 |
| 20260509215604 | 89 | 131 | 1.7 | 4.3 | 0.00 | 0.00 | 0.00 | 34 | 1010.3 |
| 20260509215104 | 89 | 318 | 0.9 | 4.3 | 0.00 | 0.00 | 0.00 | 36 | 1010.4 |
| 20260509214603 | 88 | 302 | 0.0 | 5.2 | 0.00 | 0.00 | 0.00 | 38 | 1010.5 |
| 20260509214104 | 88 | 285 | 0.9 | 2.6 | 0.00 | 0.00 | 0.00 | 38 | 1010.5 |
| 20260509212603 | 88 | 291 | 0.9 | 2.6 | 0.00 | 0.00 | 0.00 | 38 | 1010.8 |
| 20260509212103 | 88 | 304 | 0.0 | 1.7 | 0.00 | 0.00 | 0.00 | 39 | 1010.8 |
| 20260509210604 | 87 | 293 | 0.9 | 4.3 | 0.00 | 0.00 | 0.00 | 39 | 1011.1 |
| 20260509203104 | 85 | 297 | 0.0 | 2.6 | 0.00 | 0.00 | 0.00 | 45 | 1011.5 |
| 20260509202604 | 86 | 301 | 1.7 | 4.3 | 0.00 | 0.00 | 0.00 | 42 | 1011.6 |
| 20260509200604 | 84 | 187 | 0.0 | 2.6 | 0.00 | 0.00 | 0.00 | 46 | 1011.8 |
| 20260509200103 | 84 | 357 | 0.0 | 1.7 | 0.00 | 0.00 | 0.00 | 44 | 1011.9 |
| 20260509194104 | 82 | 301 | 0.9 | 2.6 | 0.00 | 0.00 | 0.00 | 49 | 1012.1 |
| 20260509193604 | 82 | 300 | 0.0 | 2.6 | 0.00 | 0.00 | 0.00 | 47 | 1012.2 |
| 20260509192104 | 82 | 257 | 0.0 | 2.6 | 0.00 | 0.00 | 0.00 | 52 | 1012.5 |
| 20260509190604 | 81 | 235 | 0.0 | 1.7 | 0.00 | 0.00 | 0.00 | 51 | 1012.7 |
| 20260509185104 | 80 | 177 | 0.0 | 1.7 | 0.00 | 0.00 | 0.00 | 51 | 1012.9 |
| 20260509183104 | 80 | 171 | 0.9 | 2.6 | 0.00 | 0.00 | 0.00 | 52 | 1013.0 |
| 20260509182604 | 79 | 202 | 0.9 | 1.7 | 0.00 | 0.00 | 0.00 | 52 | 1013.0 |
| 20260509181104 | 78 | 301 | 0.0 | 1.7 | 0.00 | 0.00 | 0.00 | 54 | 1013.3 |
| 20260509180604 | 78 | 171 | 0.0 | 1.7 | 0.00 | 0.00 | 0.00 | 54 | 1013.3 |
| 20260509180103 | 78 | 193 | 0.0 | 1.7 | 0.00 | 0.00 | 0.00 | 56 | 1013.4 |
| 20260509175104 | 77 | 164 | 0.9 | 2.6 | 0.00 | 0.00 | 0.00 | 56 | 1013.4 |
| 20260509174605 | 77 | 146 | 0.0 | 1.7 | 0.00 | 0.00 | 0.00 | 56 | 1013.4 |
| 20260509174104 | 77 | 192 | 0.9 | 4.3 | 0.00 | 0.00 | 0.00 | 57 | 1013.4 |
| 20260509173104 | 76 | 166 | 1.7 | 4.3 | 0.00 | 0.00 | 0.00 | 57 | 1013.5 |
| 20260509172604 | 76 | 170 | 0.9 | 4.3 | 0.00 | 0.00 | 0.00 | 58 | 1013.5 |
| 20260509171603 | 76 | 184 | 0.9 | 2.6 | 0.00 | 0.00 | 0.00 | 58 | 1013.5 |
| 20260509171103 | 76 | 345 | 0.9 | 2.6 | 0.00 | 0.00 | 0.00 | 60 | 1013.5 |
| 20260509165604 | 75 | 356 | 0.0 | 4.3 | 0.00 | 0.00 | 0.00 | 61 | 1013.5 |
| 20260509164604 | 74 | 200 | 1.7 | 6.1 | 0.00 | 0.00 | 0.00 | 61 | 1013.5 |
| 20260509164104 | 74 | 176 | 0.9 | 4.3 | 0.00 | 0.00 | 0.00 | 60 | 1013.4 |
| 20260509163104 | 73 | 147 | 0.9 | 2.6 | 0.00 | 0.00 | 0.00 | 63 | 1013.4 |
| 20260509162103 | 73 | 176 | 1.7 | 5.2 | 0.00 | 0.00 | 0.00 | 62 | 1013.5 |
| 20260509161103 | 72 | 194 | 0.0 | 4.3 | 0.00 | 0.00 | 0.00 | 64 | 1013.6 |
| 20260509160604 | 72 | 215 | 1.7 | 5.2 | 0.00 | 0.00 | 0.00 | 63 | 1013.7 |
| 20260509160103 | 71 | 199 | 0.9 | 4.3 | 0.00 | 0.00 | 0.00 | 64 | 1013.7 |
| 20260509155104 | 70 | 199 | 0.0 | 2.6 | 0.00 | 0.00 | 0.00 | 66 | 1013.8 |
| 20260509154103 | 70 | 183 | 0.9 | 5.2 | 0.00 | 0.00 | 0.00 | 66 | 1013.8 |
| 20260509152604 | 68 | 191 | 1.7 | 4.3 | 0.00 | 0.00 | 0.00 | 68 | 1014.0 |
| 20260509152103 | 68 | 164 | 0.0 | 2.6 | 0.00 | 0.00 | 0.00 | 70 | 1014.1 |
| 20260509151604 | 67 | 188 | 0.0 | 2.6 | 0.00 | 0.00 | 0.00 | 70 | 1014.2 |
| 20260509151103 | 67 | 184 | 0.9 | 2.6 | 0.00 | 0.00 | 0.00 | 70 | 1014.2 |
| 20260509150603 | 66 | 175 | 0.9 | 2.6 | 0.00 | 0.00 | 0.00 | 72 | 1014.2 |
| 20260509150104 | 66 | 130 | 0.0 | 0.9 | 0.00 | 0.00 | 0.00 | 72 | 1014.1 |
| 20260509145604 | 65 | 188 | 0.0 | 2.6 | 0.00 | 0.00 | 0.00 | 73 | 1014.1 |
| 20260509144603 | 64 | 176 | 0.9 | 2.6 | 0.00 | 0.00 | 0.00 | 75 | 1014.1 |
| 20260509144103 | 64 | 168 | 0.0 | 1.7 | 0.00 | 0.00 | 0.00 | 77 | 1014.2 |
| 20260509143604 | 63 | 176 | 0.0 | 1.7 | 0.00 | 0.00 | 0.00 | 78 | 1014.2 |
| 20260509142604 | 62 | 181 | 0.9 | 2.6 | 0.00 | 0.00 | 0.00 | 80 | 1014.1 |
| 20260509142103 | 61 | 183 | 0.0 | 0.9 | 0.00 | 0.00 | 0.00 | 82 | 1014.1 |
| 20260509141104 | 59 | 108 | 0.0 | 0.9 | 0.00 | 0.00 | 0.00 | 88 | 1013.9 |
| 20260509140103 | 57 | 176 | 0.0 | 0.0 | 0.00 | 0.00 | 0.00 | 89 | 1013.7 |
| 20260509134604 | 56 | 117 | 0.0 | 0.0 | 0.00 | 0.00 | 0.00 | 89 | 1013.6 |
| 20260509134103 | 56 | 117 | 0.0 | 0.0 | 0.00 | 0.00 | 0.00 | 89 | 1013.6 |
| 20260509133604 | 56 | 114 | 0.0 | 0.0 | 0.00 | 0.00 | 0.00 | 89 | 1013.5 |
| 20260509132604 | 56 | 114 | 0.0 | 0.9 | 0.00 | 0.00 | 0.00 | 89 | 1013.4 |
| 20260509132103 | 55 | 148 | 0.0 | 0.0 | 0.00 | 0.00 | 0.00 | 89 | 1013.4 |
| 20260509131605 | 56 | 150 | 0.0 | 0.0 | 0.00 | 0.00 | 0.00 | 90 | 1013.4 |
| 20260509131103 | 56 | 163 | 0.0 | 0.0 | 0.00 | 0.00 | 0.00 | 90 | 1013.4 |
| 20260509130104 | 55 | 163 | 0.0 | 0.0 | 0.00 | 0.00 | 0.00 | 89 | 1013.3 |
| 20260509125103 | 56 | 163 | 0.0 | 0.0 | 0.00 | 0.00 | 0.00 | 89 | 1013.2 |
| 20260509124604 | 56 | 162 | 0.0 | 0.0 | 0.00 | 0.00 | 0.00 | 89 | 1013.2 |
| 20260509123103 | 56 | 98 | 0.0 | 0.0 | 0.00 | 0.00 | 0.00 | 89 | 1013.0 |
| 20260509122604 | 56 | 98 | 0.0 | 0.0 | 0.00 | 0.00 | 0.00 | 89 | 1013.0 |
| 20260509122104 | 56 | 98 | 0.0 | 0.0 | 0.00 | 0.00 | 0.00 | 89 | 1012.9 |
| 20260509120104 | 57 | 98 | 0.0 | 0.0 | 0.00 | 0.00 | 0.00 | 88 | 1012.9 |
| 20260509115104 | 57 | 136 | 0.0 | 0.9 | 0.00 | 0.00 | 0.00 | 88 | 1012.9 |
| 20260509114604 | 57 | 115 | 0.0 | 0.9 | 0.00 | 0.00 | 0.00 | 87 | 1012.8 |
| 20260509114104 | 57 | 124 | 0.0 | 0.9 | 0.00 | 0.00 | 0.00 | 87 | 1012.8 |
| 20260509112103 | 57 | 117 | 0.0 | 0.9 | 0.00 | 0.00 | 0.00 | 86 | 1012.8 |
| 20260509111603 | 58 | 136 | 0.0 | 0.0 | 0.00 | 0.00 | 0.00 | 86 | 1012.8 |
| 20260509111103 | 58 | 136 | 0.0 | 0.0 | 0.00 | 0.00 | 0.00 | 86 | 1012.8 |
| 20260509110603 | 58 | 136 | 0.0 | 0.9 | 0.00 | 0.00 | 0.00 | 86 | 1012.8 |
| 20260509104603 | 59 | 120 | 0.0 | 0.0 | 0.00 | 0.00 | 0.00 | 84 | 1012.7 |
| 20260509104108 | 59 | 129 | 0.0 | 0.9 | 0.00 | 0.00 | 0.00 | 84 | 1012.7 |
| 20260509103604 | 60 | 275 | 0.0 | 0.0 | 0.00 | 0.00 | 0.00 | 84 | 1012.6 |
| 20260509103104 | 60 | 275 | 0.0 | 0.0 | 0.00 | 0.00 | 0.00 | 84 | 1012.7 |
| 20260509102104 | 61 | 275 | 0.0 | 0.0 | 0.00 | 0.00 | 0.00 | 84 | 1012.6 |
| 20260509100604 | 61 | 275 | 0.0 | 0.0 | 0.00 | 0.00 | 0.00 | 84 | 1012.6 |
| 20260509095603 | 61 | 275 | 0.0 | 0.0 | 0.00 | 0.00 | 0.00 | 83 | 1012.6 |
| 20260509095104 | 61 | 276 | 0.0 | 0.0 | 0.00 | 0.00 | 0.00 | 82 | 1012.5 |
| 20260509094604 | 61 | 276 | 0.0 | 0.0 | 0.00 | 0.00 | 0.00 | 81 | 1012.5 |
| 20260509094104 | 62 | 275 | 0.0 | 0.0 | 0.00 | 0.00 | 0.00 | 81 | 1012.5 |
| 20260509093604 | 62 | 276 | 0.0 | 0.0 | 0.00 | 0.00 | 0.00 | 81 | 1012.5 |
| 20260509093104 | 62 | 275 | 0.0 | 0.0 | 0.00 | 0.00 | 0.00 | 81 | 1012.4 |
| 20260509092603 | 62 | 275 | 0.0 | 0.0 | 0.00 | 0.00 | 0.00 | 81 | 1012.4 |
| 20260509092104 | 62 | 275 | 0.0 | 0.0 | 0.00 | 0.00 | 0.00 | 80 | 1012.4 |
| 20260509091104 | 62 | 276 | 0.0 | 0.0 | 0.00 | 0.00 | 0.00 | 79 | 1012.3 |
| 20260509084604 | 62 | 275 | 0.0 | 0.0 | 0.00 | 0.00 | 0.00 | 76 | 1012.3 |
| 20260509084104 | 62 | 275 | 0.0 | 0.0 | 0.00 | 0.00 | 0.00 | 76 | 1012.3 |
| 20260509083604 | 63 | 275 | 0.0 | 0.0 | 0.00 | 0.00 | 0.00 | 75 | 1012.2 |
| 20260509083103 | 63 | 275 | 0.0 | 0.0 | 0.00 | 0.00 | 0.00 | 74 | 1012.2 |
| 20260509082104 | 64 | 276 | 0.0 | 0.0 | 0.00 | 0.00 | 0.00 | 75 | 1012.2 |
| 20260509081103 | 64 | 276 | 0.0 | 0.0 | 0.00 | 0.00 | 0.00 | 73 | 1012.1 |
| 20260509080104 | 64 | 276 | 0.0 | 0.0 | 0.00 | 0.00 | 0.00 | 71 | 1012.3 |
| 20260509075604 | 64 | 275 | 0.0 | 0.0 | 0.00 | 0.00 | 0.00 | 69 | 1012.3 |
| 20260509075104 | 64 | 275 | 0.0 | 0.0 | 0.00 | 0.00 | 0.00 | 68 | 1012.4 |
| 20260509074604 | 64 | 275 | 0.0 | 0.0 | 0.00 | 0.00 | 0.00 | 68 | 1012.3 |
| 20260509074103 | 65 | 275 | 0.0 | 0.0 | 0.00 | 0.00 | 0.00 | 68 | 1012.3 |
| 20260509073103 | 65 | 275 | 0.0 | 0.0 | 0.00 | 0.00 | 0.00 | 67 | 1012.3 |
| 20260509072104 | 65 | 275 | 0.0 | 0.0 | 0.00 | 0.00 | 0.00 | 66 | 1012.3 |
| 20260509071105 | 66 | 275 | 0.0 | 0.0 | 0.00 | 0.00 | 0.00 | 65 | 1012.2 |
| 20260509065604 | 67 | 276 | 0.0 | 0.0 | 0.00 | 0.00 | 0.00 | 63 | 1012.2 |
| 20260509065104 | 68 | 275 | 0.0 | 0.0 | 0.00 | 0.00 | 0.00 | 60 | 1012.2 |
| 20260509062104 | 70 | 276 | 0.0 | 0.0 | 0.00 | 0.00 | 0.00 | 55 | 1012.1 |
| 20260509061103 | 70 | 275 | 0.0 | 0.0 | 0.00 | 0.00 | 0.00 | 53 | 1012.0 |
| 20260509060104 | 71 | 276 | 0.0 | 0.0 | 0.00 | 0.00 | 0.00 | 53 | 1012.0 |
| 20260509054604 | 72 | 316 | 0.0 | 0.0 | 0.00 | 0.00 | 0.00 | 51 | 1011.9 |
| 20260509054103 | 73 | 322 | 0.0 | 0.0 | 0.00 | 0.00 | 0.00 | 51 | 1011.8 |
| 20260509053604 | 73 | 322 | 0.0 | 0.0 | 0.00 | 0.00 | 0.00 | 50 | 1011.9 |
| 20260509052603 | 73 | 338 | 0.0 | 0.9 | 0.00 | 0.00 | 0.00 | 50 | 1011.9 |
| 20260509045104 | 74 | 315 | 0.0 | 0.0 | 0.00 | 0.00 | 0.00 | 53 | 1011.7 |
| 20260509044604 | 74 | 315 | 0.0 | 0.0 | 0.00 | 0.00 | 0.00 | 52 | 1011.7 |
| 20260509044104 | 75 | 315 | 0.0 | 0.0 | 0.00 | 0.00 | 0.00 | 51 | 1011.7 |
| 20260509043603 | 75 | 315 | 0.0 | 0.0 | 0.00 | 0.00 | 0.00 | 51 | 1011.6 |
| 20260509042604 | 76 | 315 | 0.0 | 0.0 | 0.00 | 0.00 | 0.00 | 49 | 1011.5 |
| 20260509042104 | 76 | 315 | 0.0 | 0.0 | 0.00 | 0.00 | 0.00 | 48 | 1011.4 |
| 20260509041104 | 76 | 314 | 0.0 | 0.0 | 0.00 | 0.00 | 0.00 | 48 | 1011.3 |
| 20260509040604 | 76 | 315 | 0.0 | 0.0 | 0.00 | 0.00 | 0.00 | 49 | 1011.3 |
| 20260509040104 | 76 | 315 | 0.0 | 0.0 | 0.00 | 0.00 | 0.00 | 48 | 1011.2 |
| 20260509035104 | 77 | 315 | 0.0 | 0.0 | 0.00 | 0.00 | 0.00 | 46 | 1011.2 |
| 20260509033604 | 78 | 315 | 0.0 | 0.0 | 0.00 | 0.00 | 0.00 | 43 | 1011.1 |
| 20260509031604 | 79 | 304 | 0.0 | 0.9 | 0.00 | 0.00 | 0.00 | 41 | 1010.9 |
| 20260509031104 | 80 | 305 | 0.0 | 0.0 | 0.00 | 0.00 | 0.00 | 40 | 1010.8 |
| 20260509025104 | 82 | 312 | 0.0 | 0.0 | 0.00 | 0.00 | 0.00 | 36 | 1010.7 |
| 20260509024603 | 82 | 304 | 0.0 | 0.0 | 0.00 | 0.00 | 0.00 | 35 | 1010.6 |
| 20260509023103 | 83 | 312 | 0.0 | 0.9 | 0.00 | 0.00 | 0.00 | 33 | 1010.5 |
| 20260509022604 | 84 | 311 | 0.0 | 0.9 | 0.00 | 0.00 | 0.00 | 32 | 1010.5 |
| 20260509021603 | 85 | 306 | 0.0 | 2.6 | 0.00 | 0.00 | 0.00 | 30 | 1010.4 |
| 20260509014604 | 88 | 301 | 0.9 | 4.3 | 0.00 | 0.00 | 0.00 | 26 | 1010.3 |
| 20260509014104 | 88 | 320 | 0.0 | 1.7 | 0.00 | 0.00 | 0.00 | 26 | 1010.3 |
| 20260509013604 | 88 | 300 | 1.7 | 4.3 | 0.00 | 0.00 | 0.00 | 25 | 1010.2 |
| 20260509013103 | 88 | 269 | 0.9 | 2.6 | 0.00 | 0.00 | 0.00 | 27 | 1010.3 |
| 20260509010604 | 89 | 300 | 0.9 | 4.3 | 0.00 | 0.00 | 0.00 | 29 | 1010.3 |
| 20260509005103 | 89 | 296 | 0.9 | 6.1 | 0.00 | 0.00 | 0.00 | 29 | 1010.4 |
| 20260509004604 | 90 | 291 | 0.9 | 2.6 | 0.00 | 0.00 | 0.00 | 28 | 1010.5 |
| 20260509003604 | 90 | 267 | 1.7 | 4.3 | 0.00 | 0.00 | 0.00 | 29 | 1010.6 |
| 20260509003104 | 90 | 303 | 0.9 | 4.3 | 0.00 | 0.00 | 0.00 | 29 | 1010.7 |
| 20260509002603 | 90 | 306 | 0.0 | 2.6 | 0.00 | 0.00 | 0.00 | 30 | 1010.7 |
| 20260509001603 | 89 | 312 | 2.6 | 6.1 | 0.00 | 0.00 | 0.00 | 30 | 1010.8 |
| 20260509001104 | 90 | 298 | 1.7 | 4.3 | 0.00 | 0.00 | 0.00 | 30 | 1010.8 |
| 20260508234603 | 90 | 305 | 1.7 | 6.1 | 0.00 | 0.00 | 0.00 | 31 | 1011.0 |
| 20260508234104 | 90 | 298 | 0.9 | 4.3 | 0.00 | 0.00 | 0.00 | 31 | 1011.0 |
| 20260508233103 | 90 | 309 | 1.7 | 4.3 | 0.00 | 0.00 | 0.00 | 33 | 1011.1 |
| 20260508231605 | 90 | 307 | 2.6 | 6.1 | 0.00 | 0.00 | 0.00 | 33 | 1011.3 |
| 20260508230604 | 90 | 307 | 1.7 | 4.3 | 0.00 | 0.00 | 0.00 | 34 | 1011.5 |
| 20260508223104 | 89 | 319 | 1.7 | 5.2 | 0.00 | 0.00 | 0.00 | 40 | 1011.9 |